TimeEDT,TemperatureF,Dew PointF,Humidity,Sea Level PressureIn,VisibilityMPH,Wind Direction,Wind SpeedMPH,Gust SpeedMPH,PrecipitationIn,Events,Conditions,WindDirDegrees,DateUTC
12:53 AM,53.1,45.0,74,30.18,-9999.0,Calm,Calm,-,N/A,,Unknown,0,2013-05-14 04:53:00
1:53 AM,52.0,43.0,71,30.17,-9999.0,North,3.5,-,N/A,,Unknown,360,2013-05-14 05:53:00
2:53 AM,48.9,42.1,77,30.17,-9999.0,Calm,Calm,-,N/A,,Unknown,0,2013-05-14 06:53:00
3:53 AM,48.0,42.1,80,30.17,-9999.0,Calm,Calm,-,N/A,,Unknown,0,2013-05-14 07:53:00
4:53 AM,46.9,41.0,80,30.18,-9999.0,Calm,Calm,-,N/A,,Unknown,0,2013-05-14 08:53:00
5:53 AM,46.0,39.9,79,30.19,-9999.0,Calm,Calm,-,N/A,,Unknown,0,2013-05-14 09:53:00
6:53 AM,44.1,41.0,89,30.21,-9999.0,Calm,Calm,-,N/A,,Unknown,0,2013-05-14 10:53:00
7:53 AM,53.1,46.0,77,30.23,-9999.0,Calm,Calm,-,N/A,,Unknown,0,2013-05-14 11:53:00
8:53 AM,63.0,45.0,52,30.25,-9999.0,Variable,5.8,-,N/A,,Unknown,0,2013-05-14 12:53:00
9:53 AM,70.0,42.1,36,30.25,-9999.0,ENE,8.1,-,N/A,,Unknown,60,2013-05-14 13:53:00
10:53 AM,73.0,39.9,30,30.26,-9999.0,East,8.1,-,N/A,,Unknown,80,2013-05-14 14:53:00
11:53 AM,75.9,39.0,26,30.27,-9999.0,NNE,6.9,-,N/A,,Unknown,30,2013-05-14 15:53:00
12:53 PM,78.1,37.9,24,30.26,-9999.0,NE,6.9,-,N/A,,Unknown,50,2013-05-14 16:53:00
1:53 PM,81.0,37.0,21,30.24,-9999.0,NNE,6.9,-,N/A,,Unknown,20,2013-05-14 17:53:00
2:53 PM,81.0,37.9,21,30.22,-9999.0,North,11.5,19.6,N/A,,Unknown,350,2013-05-14 18:53:00
3:53 PM,81.0,37.0,21,30.19,-9999.0,Calm,Calm,-,N/A,,Unknown,0,2013-05-14 19:53:00
4:53 PM,82.0,37.9,21,30.18,-9999.0,North,11.5,-,N/A,,Unknown,360,2013-05-14 20:53:00
5:53 PM,81.0,37.9,21,30.17,-9999.0,North,9.2,-,N/A,,Unknown,10,2013-05-14 21:53:00
6:53 PM,80.1,39.0,23,30.16,-9999.0,North,8.1,-,N/A,,Unknown,10,2013-05-14 22:53:00
7:53 PM,75.9,43.0,31,30.16,-9999.0,North,3.5,-,N/A,,Unknown,10,2013-05-14 23:53:00
8:53 PM,64.9,46.9,52,30.18,-9999.0,Calm,Calm,-,N/A,,Unknown,0,2013-05-15 00:53:00
9:53 PM,60.1,48.0,64,30.19,-9999.0,Calm,Calm,-,N/A,,Unknown,0,2013-05-15 01:53:00
10:53 PM,57.0,48.0,72,30.21,-9999.0,NE,3.5,-,N/A,,Unknown,40,2013-05-15 02:53:00
11:53 PM,54.0,46.9,77,30.21,-9999.0,Calm,Calm,-,N/A,,Unknown,0,2013-05-15 03:53:00